AirNav   Air Wisconsin Up To $57,000 Bonus
 
 1243 users online  

KLOR Lowe Army Heliport (Fort Rucker)
Fort Rucker/Ozark, Alabama, USA

GOING TO FORT RUCKER/OZARK?


FAA INFORMATION EFFECTIVE 08 OCTOBER 2020

Location

FAA Identifier: LOR
Lat/Long: 31-21-21.0000N 085-45-04.2000W
31-21.350000N 085-45.070000W
31.3558333,-85.7511667
(estimated)
Elevation: 294.3 ft. / 90 m (estimated)
Variation: 03W (2010)
From city: 3 miles W of FORT RUCKER OZARK, AL
Time zone: UTC -5 (UTC -6 during Standard Time)
Zip code: 36362

Heliport Operations

Heliport use: Private use. Permission required prior to landing
Control tower: yes
ARTCC: JACKSONVILLE CENTER
FSS: ANNISTON FLIGHT SERVICE STATION
NOTAMs facility: OZR (NOTAM-D service available)
Attendance: MON-FRI 0700-0100, EXCP HOL
Pattern altitude: 1094.3 ft. MSL
Segmented circle: no
Lights: SS-SR
Beacon: white-green (lighted land airport)
Operates sunset to sunrise.

Heliport Communications

ATIS: 361.1
LOWE GROUND: 357.15 [0700-0100 MON-FRI EXCP HOLS]
LOWE TOWER: 141.3 289.15 46.95FM [0700-0100 MON-FRI EXCP HOLS]
CAIRNS APPROACH: 133.45
CAIRNS DEPARTURE: 133.45
EMERG: 243.0
WX AWOS-3PT at EDN (8 nm SW): 118.9 (334-347-3524)
WX ASOS at DHN (16 nm E): PHONE 334-983-5999
  • APCH/DEP SVC PRVDD BY JACKSONVILLE ARTCC ON FREQS 134.3/353.5 (DOTHAN RCAG) WHEN CAIRNS APCH/DEP CLSD.

Nearby radio navigation aids

VOR radial/distance  VOR name  Freq  Var
HEYr261/(5.2)HANCHEY VOR110.6003W
OZRr349/5.4CAIRNS VOR/DME111.2003W
EDNr068/(8.5)ENTERPRISE VOR116.6003W
RRSr283/16.9WIREGRASS VORTAC111.6002E

 
NDB name  Hdg/Dist  Freq  Var  ID
LOWEat field26903WLOR .-.. --- .-.
HANCHEY259/5.122103WHYE .... -.-- .
RUCKR026/8.521203WOZ --- --..
BOLL WEEVIL088/11.935203WBVG -... ...- --.
JUDD087/32.926402WJUY .--- ..- -.--
BLOOD152/33.836504WTOI - --- ..
SOYYA319/39.732902WSMY ... -- -.--

Heliport Services

Runway Information

Helipad H1

Dimensions: 50 x 50 ft. / 15 x 15 m
Surface: asphalt
Latitude: 31-21.624517N
Longitude: 085-45.336950W
Elevation: 282.2 ft.
Traffic pattern: leftleft

Helipad H10

Dimensions: 50 x 50 ft. / 15 x 15 m
Surface: asphalt/concrete
Latitude: 31-21.578583N
Longitude: 085-45.336433W
Elevation: 282.5 ft.
Traffic pattern: leftleft

Helipad H11

Dimensions: 50 x 50 ft. / 15 x 15 m
Surface: asphalt
Latitude: 31-21.288733N
Longitude: 085-44.763017W
Elevation: 242.8 ft.
Traffic pattern: leftleft

Helipad H12

Dimensions: 50 x 50 ft. / 15 x 15 m
Surface: asphalt
Latitude: 31-20.907567N
Longitude: 085-44.863250W
Elevation: 243.5 ft.
Traffic pattern: leftleft

Helipad H2

Dimensions: 50 x 50 ft. / 15 x 15 m
Surface: asphalt
Latitude: 31-21.529133N
Longitude: 085-45.335850W
Elevation: 280.8 ft.
Traffic pattern: leftleft

Helipad H3

Dimensions: 50 x 50 ft. / 15 x 15 m
Surface: asphalt
Latitude: 31-21.498700N
Longitude: 085-44.886950W
Elevation: 273.9 ft.
Traffic pattern: leftleft

Helipad H4

Dimensions: 50 x 50 ft. / 15 x 15 m
Surface: asphalt
Latitude: 31-21.318950N
Longitude: 085-44.787000W
Elevation: 243.1 ft.
Traffic pattern: leftleft

Helipad H5

Dimensions: 50 x 50 ft. / 15 x 15 m
Surface: asphalt
Latitude: 31-20.907600N
Longitude: 085-44.905550W
Elevation: 243.5 ft.
Traffic pattern: leftleft

Helipad H6

Dimensions: 50 x 50 ft. / 15 x 15 m
Surface: asphalt
Latitude: 31-21.168317N
Longitude: 085-45.125317W
Elevation: 240.6 ft.
Traffic pattern: leftleft

Helipad H7

Dimensions: 50 x 50 ft. / 15 x 15 m
Surface: asphalt
Latitude: 31-21.135150N
Longitude: 085-45.099467W
Elevation: 239.3 ft.
Traffic pattern: leftleft

Helipad H8

Dimensions: 50 x 50 ft. / 15 x 15 m
Surface: asphalt
Latitude: 31-21.591100N
Longitude: 085-44.935900W
Elevation: 293.9 ft.
Traffic pattern: leftleft

Helipad H9

Dimensions: 50 x 50 ft. / 15 x 15 m
Surface: asphalt
Latitude: 31-21.103850N
Longitude: 085-45.074067W
Elevation: 238.7 ft.
Traffic pattern: leftleft

Heliport Ownership and Management from official FAA records

Ownership: U.S. Army
Owner: US ARMY LOWE ARMY HELIPAD
9325 GUNSTON ROAD
FT BELVOIR, VA 22060
Manager: Phone 205-255-2086

Additional Remarks

HELIPADS LOCATED ON ENDS OF RWYS.
FUEL: J8
SEE FLIP AP/1, FLT HAZ, FORT RUCKER.
RSTD - NO TRAN ACFT. NO USABLE RWY ON LOWE AHP AT THIS TIME.
CAUTION: INTS STU TRNG.
WX SVC AVAIL 1200-2000Z++ MON-FRI EXC HOL. PMSV METRO 243.35
WHEN ATCT CLSD, FOR CD CTC JACKSONVILLE ARTCC AT 904-845-1592.

Instrument Procedures

NOTE: All procedures below are presented as PDF files. If you need a reader for these files, you should download the free Adobe Reader.

NOT FOR NAVIGATION. Please procure official charts for flight.
FAA instrument procedures published for use from 08 October 2020 at 0901Z to 05 November 2020 at 0900Z.

 
IAPs - Instrument Approach Procedures
COPTER RNAV (GPS) 069   download (109KB)
COPTER VOR 069   download (112KB)
COPTER NDB 066   download (116KB)
NOTE: Special Take-Off Minimums/Departure Procedures apply   download (329KB)

Other nearby airports with instrument procedures:

KHEY - Hanchey Army Heliport (Fort Rucker) (5 nm E)
KOZR - Cairns Army Airfield (Fort Rucker) (5 nm S)
71J - Ozark-Blackwell Field Airport (8 nm NE)
KEDN - Enterprise Municipal Airport (8 nm SW)
KDHN - Dothan Regional Airport (16 nm E)
33J - Geneva Municipal Airport (19 nm S)
 
Loc | Ops | Rwys | IFR | FBO | Links
Com | Nav | Svcs | Stats | Notes

Continental Services
AirBoss

 
Area around KLOR (Lowe Army Heliport (Fort Rucker))
 
Road maps at: MapQuest Bing Google
 
Aerial photo
WARNING: Photo may not be current or correct
Aerial photo of KLOR (Lowe Army Heliport (Fort Rucker))
Do you have a better or more recent aerial photo of Lowe Army Heliport (Fort Rucker) that you would like to share? If so, please send us your photo.

 
Sectional chart

 
Airport distance calculator
Flying to Lowe Army Heliport (Fort Rucker)? Find the distance to fly.

From to KLOR

Sunrise and sunset
Times for 19-Oct-2020
 Local
(UTC-5)
 Zulu
(UTC)
Morning civil twilight06:2611:26
Sunrise06:5111:51
Sunset18:0523:05
Evening civil twilight18:3023:30

Current date and time
Zulu (UTC)  19-Oct-2020 22:24:22
Local (UTC-5)  19-Oct-2020 17:24:22
 
METAR
KLOR 192158Z AUTO 11004KT 10SM FEW049 26/17 A3010 RMK AO2 SLP174 T02580166
KOZR 
5nm S 
192156Z AUTO 07006KT 10SM FEW049 27/16 A3010 RMK AO2 SLP193 T02710161
KHEY 
5nm E 
192158Z AUTO 09006KT 10SM CLR 27/16 A3009 RMK AO2 SLP189 T02730159
KSXS 
5nm W 
192158Z AUTO 09007KT 10SM SCT047 27/16 A3009 RMK AO2 SLP189 T02680163
KEDN 
8nm SW 
192155Z AUTO 09005KT 10SM BKN049 26/16 A3010 RMK AO2 T02630162
KDHN 
16nm E 
192153Z 07007KT 10SM CLR 27/17 A3013 RMK AO2 SLP200 T02720167
TAF
KOZR 
5nm S 
191600Z 1916/2022 07009KT 9999 SCT050 QNH3007INS BECMG 2009/2010 04006KT 9999 FEW015 SCT050 QNH3009INS TEMPO 2011/2014 BKN008 TX28/1920Z TN16/2011Z
KDHN 
16nm E 
191734Z 1918/2018 09008G15KT P6SM SCT050 FM201200 06008KT P6SM BKN025 FM201600 06008KT P6SM SCT050
NOTAMs
Click for the latest NOTAMs
NOTAMs are issued by the DoD/FAA and will open in a separate window not controlled by AirNav.

 

 
 

Would you like to see your business listed on this page?

 If your business provides an interesting product or service to pilots, flight crews, aircraft, or users of the Lowe Army Heliport (Fort Rucker), you should consider listing it here.  To start the listing process, click on the button below
 
Add a business
 

Other Pages about Lowe Army Heliport (Fort Rucker)

Update a link
 
Copyright © AirNav, LLC. All rights reserved. Privacy Policy  Contact